Dewpoint
51 50 50 50 50 50 49 49 49 48 49 49 49 49 49 50 49 49 49 50 51 51 51 50 51 51 51 51 51 51 52 49 48 42 39 29 40 47 56 56 59 57 55 39 34 30 32 35 36 35 38 36 36 35 37 38 31 25 26 23 20 20 16 18 13 9 8 9 9 11 11 9 7 38 58 58 59 60 61 62 63 64 64 64 64 66 66 66
50 50 50 49 48 48 50 50 49 49 49 49 49 49 49 49 49 49 49 49 50 51 51 50 50 51 51 51 51 51 50 48 43 41 38 38 50 53 55 58 62 59 53 37 33 27 29 27 34 35 34 31 35 31 35 33 32 27 24 23 21 19 17 18 16 15 14 11 12 12 12 11 6 28 40 54 55 57 57 60 62 61 63 64 65 65 65 66
49 49 48 48 49 49 48 48 49 49 49 49 50 48 49 49 49 49 50 50 50 50 51 50 50 50 50 50 51 52 49 41 38 22 8 48 52 49 52 56 60 60 44 37 36 24 21 24 29 33 33 32 33 33 33 32 32 30 23 19 19 19 17 16 15 13 12 13 13 13 11 9 8 7 19 53 54 56 55 57 59 60 60 63 64 65 65 65
49 47 47 48 47 49 50 49 48 49 48 48 49 49 48 49 49 49 50 50 50 50 50 50 50 50 50 51 51 50 43 40 9 7 16 56 56 54 53 56 63 59 37 36 36 28 25 28 31 32 32 32 32 32 28 28 30 23 26 21 19 17 17 18 16 15 15 15 13 11 11 8 9 8 46 55 50 50 54 58 58 58 60 62 64 64 64 64
49 48 48 48 48 47 48 48 49 48 48 49 49 49 49 49 49 49 49 50 50 50 50 50 50 50 50 50 52 47 40 -1 -11 10 19 62 63 60 57 58 62 47 35 35 35 31 25 27 29 30 27 24 31 28 29 30 23 18 26 23 17 14 14 15 15 15 13 17 12 10 8 7 9 29 52 48 38 37 49 55 59 59 62 63 63 64 64 64
49 49 49 49 49 48 47 48 49 49 48 48 49 49 49 49 49 49 49 50 50 49 50 50 50 49 50 51 49 48 15 -11 5 11 65 64 64 64 58 60 60 41 35 33 32 31 26 26 25 25 28 29 30 29 30 29 24 21 24 17 14 13 14 15 15 14 12 10 9 9 11 9 9 11 36 44 31 32 47 57 59 62 63 64 64 64 64 64
49 48 48 47 48 49 48 47 49 48 48 49 48 48 48 48 49 49 49 50 49 49 50 49 49 50 50 51 46 39 1 -7 15 12 59 60 62 62 58 61 58 34 33 29 30 29 29 25 21 22 27 27 27 30 31 27 21 25 24 20 22 14 13 15 14 14 12 12 11 11 11 9 8 6 14 19 16 30 33 60 62 63 64 64 63 64 64 64
49 48 48 48 48 48 47 48 49 48 48 48 49 49 48 48 49 49 49 49 49 49 49 49 49 49 50 46 42 37 31 21 17 16 47 63 59 58 60 54 42 29 28 28 29 28 27 24 19 27 26 24 26 29 29 29 24 19 20 18 18 18 16 16 15 13 11 11 11 10 8 8 8 7 8 7 10 33 62 63 63 64 64 64 63 63 64 63
49 48 48 48 48 48 48 47 48 48 48 48 48 49 48 48 49 49 48 48 48 48 49 49 48 49 51 46 39 14 19 27 29 25 58 57 57 52 47 42 36 29 28 26 26 27 26 26 25 24 19 25 27 28 26 26 24 21 21 21 20 19 19 16 14 11 9 8 10 9 7 7 8 11 6 8 46 59 63 63 63 63 63 63 63 64 63 63
48 48 48 48 49 49 49 49 49 48 48 50 49 49 48 48 48 49 48 48 48 48 48 48 48 48 48 44 34 12 9 17 32 53 55 55 51 48 43 40 34 31 28 26 24 27 25 26 21 28 27 28 27 26 24 23 22 20 23 22 20 19 15 13 12 11 11 9 10 6 6 6 7 7 4 30 57 62 62 63 63 63 62 63 63 63 64 63
49 49 49 48 49 49 48 46 48 48 47 47 48 48 48 48 48 48 48 48 48 48 48 48 48 49 46 45 17 5 3 47 48 54 54 51 48 44 40 37 34 32 30 26 22 26 27 27 33 31 30 28 26 24 22 20 19 14 15 12 10 9 9 10 9 8 8 6 8 6 5 7 9 6 4 31 58 62 61 62 63 62 62 63 63 63 64 64
49 49 49 49 49 49 49 49 48 48 47 49 49 47 48 48 47 47 48 48 48 48 48 48 49 48 47 44 37 11 16 43 47 49 48 47 45 41 41 38 34 31 29 26 25 25 28 28 34 29 24 27 24 14 14 23 13 12 10 9 9 7 6 7 4 6 8 6 8 7 6 5 7 4 11 42 61 60 61 62 62 62 62 63 63 63 63 63
49 49 49 49 49 48 47 47 48 48 47 48 49 47 47 47 47 47 48 48 48 48 48 48 48 49 45 32 29 33 30 29 26 27 45 43 46 50 41 40 36 32 28 26 27 28 24 32 34 31 32 31 27 22 12 13 13 12 10 8 6 6 3 4 9 11 8 8 7 6 6 6 5 8 32 50 61 60 61 61 62 62 62 63 63 63 63 64
48 48 49 50 49 47 45 47 48 48 47 47 48 47 47 47 47 48 48 47 48 48 48 48 47 48 44 32 27 31 27 26 25 26 21 45 41 39 44 42 38 37 36 30 30 29 25 29 33 34 26 28 28 24 24 12 12 9 10 6 9 4 6 5 11 9 7 9 7 8 10 6 5 6 7 54 61 60 59 61 62 62 62 63 63 64 64 64
48 48 48 50 49 48 47 47 46 46 47 47 48 47 47 47 47 48 48 48 48 49 49 51 50 46 39 35 36 36 50 46 36 29 29 41 40 40 44 44 41 39 37 32 30 33 27 32 29 28 28 29 27 24 21 11 13 18 7 8 18 6 8 6 14 7 5 6 9 6 13 5 4 5 6 57 61 59 57 60 61 62 62 63 63 63 64 64
47 48 47 47 48 47 47 46 47 47 46 46 47 46 47 47 47 48 48 48 49 49 48 46 45 45 40 22 13 51 40 38 38 39 30 36 39 31 42 45 44 43 39 38 35 32 30 30 26 26 27 18 18 14 15 13 13 17 11 17 11 9 6 3 8 9 10 8 6 5 4 4 6 8 8 32 60 58 56 59 60 61 63 63 64 64 64 63
47 47 47 46 46 47 47 46 46 47 46 46 47 46 47 48 48 48 48 48 49 49 48 42 45 46 30 21 26 23 23 32 36 40 34 34 37 37 42 39 40 40 40 38 32 34 29 27 28 25 23 21 15 13 12 15 14 13 18 13 20 8 9 2 7 8 10 6 5 6 4 6 9 16 14 34 59 58 56 58 60 61 62 63 63 63 63 62
47 47 48 47 46 47 47 46 46 47 46 46 46 46 45 48 49 48 49 49 49 48 48 47 45 43 34 35 21 20 27 30 35 34 37 33 37 38 36 33 33 35 37 27 27 27 26 24 23 26 22 21 17 16 15 13 15 14 12 12 12 14 14 9 9 10 10 12 10 12 8 7 7 8 17 34 55 58 56 58 60 61 62 62 63 62 62 61
48 48 47 46 45 45 45 46 45 46 46 47 46 46 47 48 47 46 46 47 39 23 17 32 38 10 4 20 23 24 25 27 29 33 33 31 35 36 34 29 28 28 26 24 23 20 24 24 27 21 18 15 14 13 15 17 14 16 16 17 13 11 12 10 10 12 13 14 14 14 13 12 14 10 15 39 43 57 56 56 60 61 61 62 62 61 61 61
45 46 46 46 46 45 46 46 46 46 46 45 44 43 38 42 44 43 44 45 41 20 6 21 37 32 27 20 25 29 28 30 27 24 31 40 34 34 33 29 25 25 24 26 25 24 25 21 20 20 21 18 19 14 15 16 12 14 14 13 13 10 11 11 11 11 14 15 16 16 17 15 14 11 13 36 45 48 52 56 58 60 60 60 61 60 60 60
46 45 44 44 45 45 45 45 46 46 45 45 43 39 22 33 32 37 42 42 40 38 34 32 36 31 21 26 26 27 25 26 30 29 24 38 32 28 27 27 24 27 24 25 24 33 26 22 21 22 22 20 21 23 24 18 19 13 12 10 10 10 10 10 10 14 19 21 19 19 12 12 13 14 18 42 47 44 49 54 56 58 59 59 60 60 60 60
46 46 46 46 45 45 46 47 46 45 46 45 42 38 36 34 33 29 26 24 27 38 37 33 33 33 32 31 30 31 31 28 28 28 28 28 27 19 24 25 24 24 28 26 27 24 23 23 24 23 25 30 29 26 24 21 21 19 13 14 11 12 11 11 18 21 21 20 17 20 12 14 13 13 24 31 35 41 50 53 54 56 57 57 57 57 57 58
47 45 45 45 45 44 45 45 46 46 43 40 39 39 38 36 36 36 33 27 27 28 34 36 35 33 32 33 32 33 29 29 26 28 21 26 26 24 23 23 23 24 25 26 24 24 23 23 25 25 26 26 27 27 25 25 26 21 16 14 11 14 10 8 21 23 21 20 20 18 11 16 25 27 26 30 35 33 44 46 50 54 55 55 55 55 56 56
47 45 45 44 45 45 45 45 46 43 42 42 41 39 39 38 39 39 30 27 25 26 29 33 34 33 32 30 32 31 29 29 29 27 30 25 24 25 23 22 22 22 21 23 23 22 22 22 24 24 24 22 24 26 23 20 17 26 22 17 14 12 12 9 14 21 28 26 27 21 21 16 23 28 35 39 42 50 52 51 51 51 49 53 54 54 55 57
47 45 44 44 44 45 45 45 42 43 42 40 41 41 42 41 41 40 31 29 29 30 32 30 35 34 32 34 34 31 31 30 30 30 26 24 21 21 21 23 22 21 21 23 22 21 20 23 26 23 23 23 24 22 24 22 16 21 26 17 17 15 14 15 22 20 21 18 22 14 12 13 20 32 36 41 49 50 52 52 52 52 50 51 53 53 54 57
47 44 43 44 45 44 44 42 42 42 40 37 37 40 41 41 41 41 33 25 19 24 25 22 34 26 32 31 32 31 30 28 29 29 22 21 26 23 20 19 23 20 21 22 21 24 21 27 25 23 23 22 21 21 23 20 20 15 16 21 17 15 17 15 18 18 15 12 20 22 11 8 20 35 37 40 49 50 50 51 52 53 52 49 50 53 54 56
47 45 45 45 45 44 40 38 41 41 38 35 39 43 42 40 42 40 28 20 15 24 18 21 23 17 27 29 31 26 21 20 24 28 23 28 21 20 20 18 19 19 22 27 23 20 23 25 24 26 25 22 22 20 23 19 18 15 21 20 16 16 16 18 17 17 19 26 28 23 18 10 10 22 36 41 48 49 50 50 51 53 53 52 52 52 54 56
46 44 43 44 45 44 42 42 41 38 38 38 42 42 41 40 43 41 28 12 7 18 21 23 20 26 23 30 30 24 23 23 20 22 20 21 18 26 20 15 18 15 17 22 19 27 28 24 25 24 26 22 21 22 24 20 17 19 25 18 16 15 17 19 16 19 20 15 13 19 23 10 11 18 34 44 45 47 49 50 51 52 54 54 54 55 56 57
45 44 43 43 44 45 44 42 41 39 41 42 41 42 40 42 42 33 25 19 30 16 22 21 23 19 25 30 28 24 21 18 19 19 18 19 18 17 18 15 18 15 17 21 20 24 19 23 22 22 22 21 22 22 22 19 20 19 23 22 21 20 20 18 19 17 16 13 10 14 19 9 12 19 41 42 46 46 48 50 51 53 53 54 54 55 56 57
44 42 44 45 44 43 41 42 41 41 41 40 42 41 43 43 33 25 16 11 28 16 16 17 16 13 25 27 26 24 22 17 19 18 17 15 17 16 18 15 14 14 16 20 20 20 21 34 29 22 20 21 23 23 21 19 20 21 19 18 18 20 19 26 23 20 16 8 13 17 22 11 10 27 40 42 44 47 49 52 53 53 53 54 56 56 56 57
43 42 43 44 41 41 40 39 40 41 41 42 41 42 41 34 28 20 15 20 27 23 18 15 14 25 24 23 22 23 20 17 17 14 12 17 18 20 17 15 19 18 23 19 18 21 17 19 21 20 30 22 22 21 22 20 20 19 19 17 16 17 18 18 19 19 9 9 14 17 19 13 11 28 41 47 49 51 51 51 51 53 53 54 54 54 55 56
43 42 43 42 41 41 40 39 41 43 42 42 42 40 31 24 21 22 20 28 20 26 24 14 18 23 23 22 19 20 18 16 17 14 11 13 18 16 17 18 18 15 12 14 14 23 20 16 16 16 39 18 19 18 17 19 19 19 20 17 14 14 11 8 14 7 6 12 13 20 21 15 26 27 44 46 49 50 52 52 52 52 52 53 54 54 54 55
44 43 43 42 43 41 41 41 42 42 42 42 42 33 24 16 12 20 22 23 22 25 24 25 13 19 22 18 16 17 17 13 16 17 14 17 15 15 21 19 19 20 10 20 17 16 18 21 18 17 17 26 17 15 15 16 18 17 17 17 14 8 7 3 9 8 13 15 17 18 22 21 33 43 46 46 48 50 52 52 53 52 52 53 53 54 54 54
44 43 42 43 42 42 42 43 43 43 43 42 39 28 26 17 19 37 17 20 19 31 33 25 14 18 19 16 15 15 13 15 13 15 15 16 14 17 18 19 20 19 25 24 14 15 11 12 15 16 15 19 15 14 15 20 18 17 17 15 17 14 10 3 10 3 8 13 16 20 12 17 34 37 47 48 48 51 52 52 52 53 53 53 53 54 54 54
45 44 43 42 43 43 43 43 43 44 42 39 31 25 18 19 25 26 30 28 20 25 27 29 24 15 17 16 16 14 15 18 15 15 18 15 17 18 18 20 21 22 23 17 21 18 13 18 20 19 19 17 14 15 16 16 16 19 18 16 16 17 19 10 16 16 15 11 11 21 9 34 38 47 49 50 50 51 51 52 52 52 52 52 52 52 52 53
44 42 42 42 42 43 43 44 44 43 41 36 24 20 17 24 23 31 31 29 25 26 27 28 21 13 17 16 17 12 19 17 16 15 17 15 18 18 19 19 17 17 19 20 23 15 13 16 17 21 19 15 14 21 18 14 14 22 14 15 17 19 17 15 14 20 12 13 6 16 37 41 44 48 48 49 50 50 51 51 51 52 52 51 51 51 52 52
41 41 41 42 42 43 44 44 44 42 41 31 19 19 24 23 29 29 32 28 27 26 26 17 17 15 15 14 14 12 14 17 17 14 14 15 17 18 18 20 19 16 17 21 20 23 17 18 21 15 14 14 15 18 18 17 19 17 15 16 21 22 22 18 11 11 7 6 9 28 35 37 38 34 47 47 48 49 50 50 51 51 50 50 50 50 50 50
41 42 43 43 44 44 45 44 43 41 40 29 20 29 33 23 31 27 30 27 22 25 22 18 19 13 15 17 12 12 15 12 20 16 16 14 19 24 19 21 18 16 15 17 17 22 17 12 12 13 14 13 19 17 17 18 18 15 16 17 15 13 11 17 15 5 3 3 4 23 30 37 37 36 44 45 46 48 49 50 49 49 48 49 49 49 49 49
43 42 39 44 45 45 44 43 42 42 35 27 26 19 27 33 33 29 28 24 22 26 25 19 17 20 17 16 17 13 12 14 17 20 9 16 22 30 30 28 26 25 14 13 14 18 25 12 13 17 12 18 20 18 15 19 17 17 17 14 25 21 21 11 13 15 14 4 5 10 32 31 38 37 44 45 47 48 49 48 47 47 47 47 48 48 48 48
41 40 39 44 45 44 44 42 42 37 30 24 29 24 31 27 25 24 22 22 23 24 21 20 20 20 19 19 13 11 16 15 14 20 25 29 27 30 32 34 29 30 13 14 14 24 13 19 6 15 17 17 16 24 17 17 15 15 17 16 16 22 25 18 21 14 12 9 7 11 17 22 30 38 45 46 47 49 49 47 46 46 46 47 47 47 47 47
41 39 40 45 44 44 43 42 35 34 31 33 34 32 25 24 27 21 21 22 25 26 23 19 21 17 19 18 15 16 20 26 30 29 28 31 28 23 32 36 34 31 25 19 17 29 22 13 13 22 16 23 21 32 33 26 17 16 16 16 16 18 14 12 12 18 18 14 7 12 10 21 34 47 47 47 48 49 47 46 45 46 46 46 46 46 46 46
39 37 41 45 44 43 41 33 33 36 31 31 23 26 24 29 24 21 25 28 29 26 19 21 24 23 22 19 18 19 21 26 30 32 33 30 34 32 32 38 38 31 17 18 18 31 23 23 19 9 14 28 31 33 35 37 26 26 25 29 22 22 18 18 11 14 21 23 20 20 17 19 39 48 48 49 49 47 46 45 45 45 45 45 45 45 45 45
40 39 45 45 44 43 36 29 35 33 31 32 35 27 26 23 19 19 27 30 25 19 23 23 22 23 22 20 22 23 28 29 31 32 33 33 33 33 35 37 39 37 36 34 31 35 46 18 19 21 24 29 28 26 29 37 34 33 35 36 33 22 22 18 20 22 18 22 19 18 15 20 39 49 49 48 47 46 46 45 45 45 45 44 44 44 43 43
39 39 42 46 44 43 35 25 26 28 32 34 32 25 33 34 28 25 26 30 28 24 24 24 22 20 23 24 25 22 25 26 31 32 31 34 33 34 35 41 41 40 31 33 28 35 15 20 20 17 18 21 23 23 24 28 37 34 33 35 37 32 26 26 26 25 21 24 22 18 14 29 44 48 47 46 45 44 44 44 44 43 43 43 43 44 43 43
39 42 44 45 44 44 37 33 30 26 33 35 35 36 38 37 35 31 26 29 28 22 25 22 21 23 27 28 29 29 30 29 30 31 33 35 34 35 34 38 44 45 47 44 47 34 25 23 22 16 13 11 12 13 16 22 31 33 35 35 36 27 26 24 15 19 16 22 22 18 19 32 45 45 45 44 43 42 43 43 42 42 41 41 42 42 41 41
37 32 37 42 41 42 42 44 42 37 32 34 30 34 37 33 33 32 33 32 30 24 24 23 20 25 27 29 29 29 29 30 30 30 32 32 33 32 34 36 44 47 47 47 46 39 31 31 26 22 20 19 21 20 26 33 30 30 31 33 35 34 31 29 26 19 14 20 22 26 34 38 42 42 42 43 42 41 41 41 41 40 40 40 40 40 40 39
41 34 34 32 40 40 39 41 41 39 33 34 29 34 32 34 34 31 29 25 25 25 26 26 26 26 26 28 28 29 30 29 30 31 32 31 33 34 35 34 35 43 49 43 43 34 33 31 32 32 32 26 26 31 34 35 33 33 33 33 35 34 31 27 22 18 27 24 18 30 39 40 41 42 42 41 41 40 40 40 40 39 40 40 39 39 39 38
34 37 41 42 36 33 35 35 40 38 39 38 34 36 35 34 33 24 25 22 27 26 24 24 26 26 24 28 29 27 29 29 30 26 32 31 31 31 33 33 33 39 43 36 39 35 32 29 32 33 33 33 33 33 36 35 35 36 35 35 35 35 33 30 31 31 27 21 21 33 40 40 41 41 41 41 40 39 39 39 40 39 39 39 39 38 38 37
42 41 41 44 36 35 36 36 40 39 37 37 34 36 34 33 31 30 25 28 25 27 26 22 26 26 28 29 29 27 28 25 24 28 29 29 30 28 28 31 33 36 36 35 33 35 34 30 34 33 32 32 33 33 34 35 34 35 35 36 37 37 35 35 35 35 33 28 31 39 40 36 37 38 39 39 39 38 38 39 39 39 39 39 38 37 37 37
39 38 37 43 43 39 37 37 37 38 34 39 34 35 36 33 31 30 27 24 22 25 28 26 26 25 27 26 29 26 27 30 29 24 28 29 25 29 26 28 29 32 36 34 33 29 33 28 36 32 31 32 34 34 35 34 35 34 35 36 36 37 38 38 38 36 38 37 37 38 36 34 37 39 38 38 39 38 38 38 38 38 38 38 37 37 37 37
43 44 44 39 37 36 38 37 36 35 31 33 35 36 34 33 29 29 27 27 27 26 28 24 23 23 23 23 24 26 30 29 26 27 29 29 22 25 25 25 31 29 31 32 33 29 32 28 28 29 30 31 34 33 34 34 34 33 33 34 34 35 33 35 33 35 37 35 37 37 35 34 37 39 38 38 38 37 36 36 37 37 37 37 37 37 37 37
45 47 45 42 35 40 36 36 33 33 30 33 36 35 30 29 28 27 23 23 27 28 26 25 28 23 24 23 22 24 28 26 24 25 26 32 35 37 36 35 33 28 30 31 33 28 27 31 26 24 29 28 33 34 32 27 26 24 25 31 34 37 37 38 37 37 38 38 36 35 37 36 37 38 36 36 36 36 36 36 36 37 37 37 37 37 37 37